Other Surface Observations
Issued by NWS Tucson, AZ

Home | Current Version | Previous Version | Text Only | Print | Product List | Glossary On
Versions: 1 2 3 4 5 6 7 8 9 10 11 12 13 14 15 16 17 18 19 20 21 22 23 24 25 26 27 28 29 30 31 32 33 34 35 36 37 38 39 40 41 42 43 44 45 46 47 48 49 50
000
SXUS55 KTWC 030015
OSOTWC

WEATHER ROUNDUP FOR SOUTHEAST ARIZONA
NATIONAL WEATHER SERVICE TUCSON AZ
515 PM MST THU JUL 02 2015

AZZ504>506-514-030115-
LOCATION       SKY/WX    TMP DP  RH WIND       PRES   REMARKS
TUCSON         PTSUNNY  100  54  21 W13G21    29.89F
DAVIS-MONTHAN  MOSUNNY   97  58  26 N12       29.87F
CHILDRENS PARK N/A       98  56  25 NW8               PIMA CO DEQ
ALVERNON/22ND  N/A      N/A N/A N/A N/A               PIMA CO DEQ
CHERRY/GLENN   N/A      N/A N/A N/A N/A               PIMA CO DEQ
TANGERINE      N/A       99 N/A N/A NW8               PIMA CO DEQ
CONTL RANCH    N/A      100  57  24 NW10              PIMA CO DEQ
GRANT/1ST      N/A       99  56  24 NE7               PIMA CO DEQ
CRAYCROFT/22ND N/A      N/A N/A N/A N/A               PIMA CO DEQ
GOLFLINKS/KOLB N/A      N/A N/A N/A N/A               PIMA CO DEQ
AJO/12TH       N/A       99  56  24 W7                PIMA CO DEQ
SAGUARO EAST   N/A      N/A N/A N/A N/A               PIMA CO DEQ
FAIRGROUNDS    N/A       98 N/A N/A NW11              PIMA CO DEQ
SAGUARO        N/A       99  55  23 W13G22            *SABINO CYN
SAN CARLOS     N/A      102  55  21 W15G23            *SAN CARLOS
GREEN VALLEY   N/A       97  55  25 NW4               PIMA CO DEQ
HORSE CAMP CYN N/A       91  53  28 W19G29            *ARAVAIPA CYN
RINCON MTNS    N/A       74  54  49 W4G14             *NR MANNING CAMP
$$

AZZ509>511-030115-
LOCATION       SKY/WX    TMP DP  RH WIND       PRES   REMARKS
SAFFORD        MOSUNNY  102  53  19 W22G29    29.82F HX 100
STRAY HORSE    N/A       77  46  34 NW8G17            *
TRAIL CABIN    N/A       78  48  35 SW9G26            *N OF GRANVILLE
BLACK HILLS    N/A      101  55  22 NW14G25           *N OF FT THOMAS
DRY LAKE       N/A       83  52  35 W7G14             *NATANES MTNS
NOON CREEK     N/A       92  51  25 NE8G17            *PINALENO MTNS
COLUMBINE      N/A       69  44  40 S5                *PINALENO MTNS
GUTHRIE        N/A       89  49  25 W15G29            *SW OF GUTHRIE
$$

AZZ502-503-513-030115-
LOCATION       SKY/WX    TMP DP  RH WIND       PRES   REMARKS
NOGALES        CLOUDY    91  58  32 NW7       29.99F
SELLS          N/A       99  56  24 NW8G15            *
SASABE         N/A       95  62  34 W8G17             *ALTAR VLY
HOPKINS        N/A       80  56  44 W11G18            *SANTA RITA MTNS
CARR CYN       N/A       88  58  36 NW5G11            *W OF HEREFORD
$$

AZZ507-508-512-030115-
LOCATION       SKY/WX    TMP DP  RH WIND       PRES   REMARKS
SIERRA VISTA   PTSUNNY   88  53  30 NW20      30.05F
DOUGLAS        MOSUNNY   97  53  22 NW18G25   29.95F
EMPIRE MTNS    N/A       87  57  36 NW9G17            *LAS CIENEGAS NCA
MULESHOE RANCH N/A       92  57  31 NW13G21           *PRESERVE
HEADQUARTERS   N/A       92  49  23 W6G14             *CHIRICAHUA MTNS
$$

.............................NOTES.............................
THIS IS AN AUTOMATED COLLECTIVE WITH MINIMAL QUALITY CONTROL.
PIMA CO DEQ SITES HAVE NONSTANDARD WIND SENSOR HEIGHTS.
PIMA CO DEQ SITES DO NOT REPORT WIND GUSTS.
* INDICATES WIND SENSORS LOCATED AT 20 FEET INSTEAD OF 33 FEET.
..............................KEY..............................
SKY/WX - SKY CONDITION/WEATHER
TMP    - TEMPERATURE IN FAHRENHEIT
DP     - DEWPOINT IN FAHRENHEIT
RH     - RELATIVE HUMIDITY IN PERCENT
WIND   - DIRECTION AND SPEED IN MILES PER HOUR (MPH)
VRB    - VARIABLE WIND DIRECTION
PRES   - MEAN SEA LEVEL PRESSURE IN INCHES OF MERCURY
         F - FALLING PRESSURE   R - RISING PRESSURE
         S - STEADY PRESSURE
VSB    - VISIBILITY IN MILES
HX     - HEAT INDEX IN FAHRENHEIT
WCI    - WIND CHILL INDEX IN FAHRENHEIT
N/A    - NOT AVAILABLE
AFB    - AIR FORCE BASE
         DAVIS-MONTHAN IS DAVIS-MONTHAN AIR FORCE BASE
CYN    - CANYON
MTNS   - MOUNTAINS
NCA    - NATIONAL CONSERVATION AREA
NR     - NEAR
VLY    - VALLEY
CONTL  - CONTINENTAL
PIMA CO DEQ - PIMA COUNTY DEPT OF ENVIRONMENTAL QUALITY



USA.gov is the U.S. government's official web portal to all federal, state and local government web resources and services.